Regional Weather Roundup
Issued by NWS

Home | Current Version | Previous Version | Text Only | Print | Product List | Glossary Off
Versions: 1 2 3 4 5 6 7 8 9 10 11 12 13 14 15 16 17 18 19 20 21 22 23 24 25 26 27 28 29 30 31 32 33 34 35 36 37 38 39 40 41 42 43 44 45 46 47 48 49 50

494
ASUS43 KDTX 011110
RWRMI
MICHIGAN HOURLY REGIONAL WEATHER ROUNDUP
NATIONAL WEATHER SERVICE DETROIT/PONTIAC MI
700 AM EDT SUN MAY 01 2016

NOTE: "FAIR" INDICATES FEW OR NO CLOUDS BELOW 12,000 FEET WITH NO
SIGNIFICANT WEATHER AND/OR OBSTRUCTION TO VISIBILITY.

MIZ047>049-052>055-059>063-066>070-074>076-081>083-011200-
SOUTHEAST LOWER MICHIGAN

CITY           SKY/WX    TMP DP  RH WIND       PRES   REMARKS
ADRIAN         CLOUDY    48  47  96 E7        29.92R FOG
ALMA           LGT RAIN  43  43  99 N7        29.98R
ANN ARBOR      CLOUDY    48  47  96 NE6       29.92R FOG
BAD AXE        CLOUDY    43  42  97 NE10      29.99R
CARO           LGT RAIN  44  42  94 NE7       29.97R
DETROIT CITY   CLOUDY    48  46  93 NE7       29.92R FOG
DETROIT        DRIZZLE   49  47  93 NE5       29.93R FOG
FLINT          CLOUDY    47  43  86 N9        29.96R
GROSSE ILE     CLOUDY    48  46  93 NE7       29.90R FOG
HILLSDALE      CLOUDY    47  47 100 E7        29.90S FOG
HOWELL         CLOUDY    46  46  99 N5        29.93R FOG

CITY           SKY/WX    TMP DP  RH WIND       PRES   REMARKS
JACKSON        CLOUDY    47  46  97 N5        29.92R FOG
LAMBERTVILLE   FOG       49  48  95 NE6       29.90S VSB 3/4
LANSING        CLOUDY    45  43  93 NE9       29.95S FOG
LAPEER         CLOUDY    44  43  97 NE7       29.95S
MASON          CLOUDY    46  44  95 NE5       29.93S FOG
MONROE         CLOUDY    48  48 100 NE8       29.90R FOG
MT. CLEMENS    CLOUDY    47  47 100 NE10      29.90S FOG
PONTIAC        LGT RAIN  47  45  93 NE7       29.91R
PORT HOPE        N/A     43  41  93 NE16      29.99S
PORT HURON     DRIZZLE   45  45 100 NE9       29.94R
TRI CITIES     LGT RAIN  46  43  89 NE15      29.99R FOG
MIDLAND        CLOUDY    44  42  95 NE6       29.99S
TROY           CLOUDY    47  46  97 NE7       29.94R FOG
SAGINAW HB     CLOUDY    45  43  93 NE8       29.98R FOG
$$
MIZ043>046-050>051-056>058-064>065-071>073-077>080-011200-
SOUTHWEST LOWER MICHIGAN

CITY           SKY/WX    TMP DP  RH WIND       PRES   REMARKS
BATTLE CREEK   CLOUDY    46  44  93 NE7       29.93R FOG
BENTON HARBOR  CLOUDY    49  46  90 NE6       29.92R
BIG RAPIDS     CLOUDY    43  40  89 NE8       29.98F
COLDWATER      CLOUDY    48  48 100 NE5       29.91S FOG
FREMONT        CLOUDY    44  43  97 N8        29.98R
HOLLAND        CLOUDY    45  43  93 NE8       29.95R FOG
GRAND RAPIDS   DRIZZLE   46  44  93 NE7       29.95S FOG
IONIA          MIX PCPN  44  43  98 NE9       29.95S
KALAMAZOO      CLOUDY    47  44  90 NE5       29.94R FOG
LUDINGTON      CLOUDY    42  40  93 NE6       30.02S
MARSHALL       CLOUDY    46  45  96 CALM      29.92R FOG
MOUNT PLEASANT CLOUDY    43  42  95 N7        30.00R
MUSKEGON       CLOUDY    46  42  86 N8        29.97S FOG
SOUTH HAVEN    CLOUDY    47  46  99 NE5       29.93R
$$
MIZ016>042-011200-
NORTHERN LOWER MICHIGAN

CITY           SKY/WX    TMP DP  RH WIND       PRES   REMARKS
ALPENA         CLOUDY    44  34  67 NE6       30.07S
BEAVER ISLAND  CLOUDY    44  34  68 E8        30.09R
BELLAIRE       FLURRIES  46  32  59 CALM      30.05S
CADILLAC       CLOUDY    40  35  82 CALM      30.01S
CHARLEVOIX     CLOUDY    47  32  57 E6        30.10R
FRANKFORT      DRIZZLE   43  38  82 N5        30.05R
GAYLORD        LGT RAIN  44  33  65 E7        30.05S
GRAYLING       LGT RAIN  43  36  75 NE9       30.05R
HARBOR SPRINGS CLOUDY    46  31  57 NE8       30.07R
HOUGHTON LAKE  CLOUDY    41  34  76 NE9       30.02F
MANISTEE       CLOUDY    45  34  65 NE5       30.03S
OSCODA         CLOUDY    43  40  91 N6        30.03S
PELLSTON       CLOUDY    46  32  58 NE8       30.08S
ROGERS CITY    CLOUDY    44  33  64 CALM      30.09R
TRAVERSE CITY  LGT RAIN  43  35  73 NE6       30.05R
$$
MIZ007>008-015-011200-
EASTERN UPPER MICHIGAN

CITY           SKY/WX    TMP DP  RH WIND       PRES   REMARKS
KINROSS          N/A     45  34  65 NE9       30.11R
MACKINAC ISLAN PTCLDY    43  33  67 NE9       30.09S
NEWBERRY       PTCLDY    38  33  82 N5        30.11S WCI  34
S. S. MARIE    CLOUDY    47  30  51 NE6       30.11S
MUNISING         N/A     31  29  92 S6        30.14R WCI  25
$$
MIZ004>006-011>014-085-011200-
CENTRAL UPPER MICHIGAN

CITY           SKY/WX    TMP DP  RH WIND       PRES   REMARKS
MANISTIQUE     CLOUDY    38  34  83 N8        30.10R WCI  32
ESCANABA       CLOUDY    41  34  75 NW8       30.11R
MENOMINEE      CLOUDY    43  32  65 NE5       30.09S
SAWYER-GWINN   CLEAR     36  34  93 N10       30.13S WCI  28
$$
MIZ001>003-009>011-084-011200-
WESTERN UPPER MICHIGAN

CITY           SKY/WX    TMP DP  RH WIND       PRES   REMARKS
IRON MOUNTAIN  CLOUDY    37  33  85 NW3       30.11R
HOUGHTON       CLOUDY    40  33  76 E10       30.18R WCI  33
COPPER HARBOR    N/A     36  36 100 N6        30.21S WCI  31
IRONWOOD         N/A     34  32  93 CALM      30.16S VSB<1/4
$$

ABBREVIATIONS USED IN REMARKS
   TC - TEMPERATURE IN CELSIUS
  WCI - WIND CHILL INDEX
   HX - HEAT INDEX
  VSB - VISIBILITY





USA.gov is the U.S. government's official web portal to all federal, state and local government web resources and services.